Location: Peterborough
(44.3091°N, 78.3197°W)
Time: 07:19:26
(UTC-04:00)

A-11 Canister half - Pass Details

Date: 24 March 2023
Orbit: 1513 x 1686 km, 47.2° (Epoch: 04 June)

Event Time Altitude Azimuth Distance (km) Brightness Sun altitude
Rises 21:18:17 0° 203° (SSW) 4,769 11.6 -19.5°
Reaches altitude 10° 21:21:41 10° 195° (SSW) 3,812 11.0 -20.1°
Maximum altitude 21:30:10 35° 134° (SE) 2,418 9.5 -21.5°
Enters shadow 21:32:18 32° 111° (ESE) 2,544 9.5 -21.8°
